Year,Month,Day,Hour,Minute,Value (Times are PST for temperature in C)
2021,06,23,00,00,15.10
2021,06,23,00,01,15.10
2021,06,23,00,02,15.10
2021,06,23,00,03,15.00
2021,06,23,00,04,15.00
2021,06,23,00,05,15.00
2021,06,23,00,06,14.90
2021,06,23,00,07,14.90
2021,06,23,00,08,14.90
2021,06,23,00,09,14.80
2021,06,23,00,10,14.80
2021,06,23,00,11,14.80
2021,06,23,00,12,14.80
2021,06,23,00,13,14.70
2021,06,23,00,14,14.70
2021,06,23,00,15,14.70
2021,06,23,00,16,14.60
2021,06,23,00,17,14.60
2021,06,23,00,18,14.60
2021,06,23,00,19,14.60
2021,06,23,00,20,14.60
2021,06,23,00,21,14.60
2021,06,23,00,22,14.60
2021,06,23,00,23,14.50
2021,06,23,00,24,14.50
2021,06,23,00,25,14.50
2021,06,23,00,26,14.50
2021,06,23,00,27,14.50
2021,06,23,00,28,14.50
2021,06,23,00,29,14.50
2021,06,23,00,30,14.50
2021,06,23,00,31,14.50
2021,06,23,00,32,14.40
2021,06,23,00,33,14.40
2021,06,23,00,34,14.40
2021,06,23,00,35,14.40
2021,06,23,00,36,14.40
2021,06,23,00,37,14.40
2021,06,23,00,38,14.40
2021,06,23,00,39,14.30
2021,06,23,00,40,14.30
2021,06,23,00,41,14.30
2021,06,23,00,42,14.30
2021,06,23,00,43,14.30
2021,06,23,00,44,14.30
2021,06,23,00,45,14.30
2021,06,23,00,46,14.30
2021,06,23,00,47,14.30
2021,06,23,00,48,14.30
2021,06,23,00,49,14.20
2021,06,23,00,50,14.20
2021,06,23,00,51,14.10
2021,06,23,00,52,14.10
2021,06,23,00,53,14.10
2021,06,23,00,54,14.00
2021,06,23,00,55,14.00
2021,06,23,00,56,14.00
2021,06,23,00,57,13.90
2021,06,23,00,58,13.90
2021,06,23,00,59,13.90
2021,06,23,01,00,13.90
2021,06,23,01,01,13.80
2021,06,23,01,02,13.80
2021,06,23,01,03,13.80
2021,06,23,01,04,13.80
2021,06,23,01,05,13.80
2021,06,23,01,06,13.70
2021,06,23,01,07,13.70
2021,06,23,01,08,13.70
2021,06,23,01,09,13.70
2021,06,23,01,10,13.60
2021,06,23,01,11,13.60
2021,06,23,01,12,13.60
2021,06,23,01,13,13.60
2021,06,23,01,14,13.60
2021,06,23,01,15,13.60
2021,06,23,01,16,13.60
2021,06,23,01,17,13.60
2021,06,23,01,18,13.60
2021,06,23,01,19,13.60
2021,06,23,01,20,13.60
2021,06,23,01,21,13.60
2021,06,23,01,22,13.50
2021,06,23,01,23,13.50
2021,06,23,01,24,13.50
2021,06,23,01,25,13.50
2021,06,23,01,26,13.40
2021,06,23,01,27,13.40
2021,06,23,01,28,13.40
2021,06,23,01,29,13.40
2021,06,23,01,30,13.40
2021,06,23,01,31,13.40
2021,06,23,01,32,13.40
2021,06,23,01,33,13.40
2021,06,23,01,34,13.30
2021,06,23,01,35,13.30
2021,06,23,01,36,13.30
2021,06,23,01,37,13.30
2021,06,23,01,38,13.40
2021,06,23,01,39,13.40
2021,06,23,01,40,13.40
2021,06,23,01,41,13.40
2021,06,23,01,42,13.50
2021,06,23,01,43,13.50
2021,06,23,01,44,13.50
2021,06,23,01,45,13.50
2021,06,23,01,46,13.50
2021,06,23,01,47,13.50
2021,06,23,01,48,13.60
2021,06,23,01,49,13.60
2021,06,23,01,50,13.60
2021,06,23,01,51,13.60
2021,06,23,01,52,13.50
2021,06,23,01,53,13.50
2021,06,23,01,54,13.50
2021,06,23,01,55,13.50
2021,06,23,01,56,13.50
2021,06,23,01,57,13.50
2021,06,23,01,58,13.50
2021,06,23,01,59,13.50
2021,06,23,02,00,13.40
2021,06,23,02,01,13.40
2021,06,23,02,02,13.40
2021,06,23,02,03,13.40
2021,06,23,02,04,13.40
2021,06,23,02,05,13.30
2021,06,23,02,06,13.30
2021,06,23,02,07,13.30
2021,06,23,02,08,13.30
2021,06,23,02,09,13.30
2021,06,23,02,10,13.30
2021,06,23,02,11,13.30
2021,06,23,02,12,13.30
2021,06,23,02,13,13.30
2021,06,23,02,14,13.30
2021,06,23,02,15,13.30
2021,06,23,02,16,13.30
2021,06,23,02,17,13.30
2021,06,23,02,18,13.30
2021,06,23,02,19,13.30
2021,06,23,02,20,13.30
2021,06,23,02,21,13.30
2021,06,23,02,22,13.30
2021,06,23,02,23,13.30
2021,06,23,02,24,13.30
2021,06,23,02,25,13.30
2021,06,23,02,26,13.30
2021,06,23,02,27,13.30
2021,06,23,02,28,13.30
2021,06,23,02,29,13.30
2021,06,23,02,30,13.30
2021,06,23,02,31,13.20
2021,06,23,02,32,13.20
2021,06,23,02,33,13.20
2021,06,23,02,34,13.20
2021,06,23,02,35,13.20
2021,06,23,02,36,13.20
2021,06,23,02,37,13.20
2021,06,23,02,38,13.20
2021,06,23,02,39,13.20
2021,06,23,02,40,13.20
2021,06,23,02,41,13.20
2021,06,23,02,42,13.20
2021,06,23,02,43,13.20
2021,06,23,02,44,13.10
2021,06,23,02,45,13.10
2021,06,23,02,46,13.10
2021,06,23,02,47,13.10
2021,06,23,02,48,13.10
2021,06,23,02,49,13.10
2021,06,23,02,50,13.10
2021,06,23,02,51,13.10
2021,06,23,02,52,13.10
2021,06,23,02,53,13.10
2021,06,23,02,54,13.00
2021,06,23,02,55,13.00
2021,06,23,02,56,13.00
2021,06,23,02,57,13.00
2021,06,23,02,58,12.90
2021,06,23,02,59,12.90
2021,06,23,03,00,12.90
2021,06,23,03,01,12.90
2021,06,23,03,02,12.90
2021,06,23,03,03,12.90
2021,06,23,03,04,12.90
2021,06,23,03,05,12.90
2021,06,23,03,06,12.90
2021,06,23,03,07,12.90
2021,06,23,03,08,12.90
2021,06,23,03,09,12.90
2021,06,23,03,10,12.90
2021,06,23,03,11,12.80
2021,06,23,03,12,12.80
2021,06,23,03,13,12.80
2021,06,23,03,14,12.80
2021,06,23,03,15,12.80
2021,06,23,03,16,12.80
2021,06,23,03,17,12.80
2021,06,23,03,18,12.80
2021,06,23,03,19,12.80
2021,06,23,03,20,12.80
2021,06,23,03,21,12.80
2021,06,23,03,22,12.80
2021,06,23,03,23,12.80
2021,06,23,03,24,12.80
2021,06,23,03,25,12.70
2021,06,23,03,26,12.70
2021,06,23,03,27,12.70
2021,06,23,03,28,12.70
2021,06,23,03,29,12.70
2021,06,23,03,30,12.60
2021,06,23,03,31,12.60
2021,06,23,03,32,12.60
2021,06,23,03,33,12.50
2021,06,23,03,34,12.50
2021,06,23,03,35,12.40
2021,06,23,03,36,12.40
2021,06,23,03,37,12.40
2021,06,23,03,38,12.30
2021,06,23,03,39,12.30
2021,06,23,03,40,12.30
2021,06,23,03,41,12.30
2021,06,23,03,42,12.20
2021,06,23,03,43,12.20
2021,06,23,03,44,12.20
2021,06,23,03,45,12.20
2021,06,23,03,46,12.20
2021,06,23,03,47,12.20
2021,06,23,03,48,12.20
2021,06,23,03,49,12.20
2021,06,23,03,50,12.20
2021,06,23,03,51,12.20
2021,06,23,03,52,12.20
2021,06,23,03,53,12.20
2021,06,23,03,54,12.20
2021,06,23,03,55,12.20
2021,06,23,03,56,12.20
2021,06,23,03,57,12.10
2021,06,23,03,58,12.10
2021,06,23,03,59,12.10
2021,06,23,04,00,12.10
2021,06,23,04,01,12.10
2021,06,23,04,02,12.10
2021,06,23,04,03,12.10
2021,06,23,04,04,12.10
2021,06,23,04,05,12.10
2021,06,23,04,06,12.00
2021,06,23,04,07,12.00
2021,06,23,04,08,12.00
2021,06,23,04,09,12.00
2021,06,23,04,10,12.00
2021,06,23,04,11,12.00
2021,06,23,04,12,12.00
2021,06,23,04,13,11.90
2021,06,23,04,14,11.90
2021,06,23,04,15,11.90
2021,06,23,04,16,11.90
2021,06,23,04,17,11.80
2021,06,23,04,18,11.80
2021,06,23,04,19,11.80
2021,06,23,04,20,11.80
2021,06,23,04,21,11.80
2021,06,23,04,22,11.80
2021,06,23,04,23,11.80
2021,06,23,04,24,11.80
2021,06,23,04,25,11.80
2021,06,23,04,26,11.80
2021,06,23,04,27,11.80
2021,06,23,04,28,11.70
2021,06,23,04,29,11.70
2021,06,23,04,30,11.70
2021,06,23,04,31,11.70
2021,06,23,04,32,11.70
2021,06,23,04,33,11.70
2021,06,23,04,34,11.70
2021,06,23,04,35,11.70
2021,06,23,04,36,11.70
2021,06,23,04,37,11.60
2021,06,23,04,38,11.60
2021,06,23,04,39,11.60
2021,06,23,04,40,11.60
2021,06,23,04,41,11.50
2021,06,23,04,42,11.50
2021,06,23,04,43,11.50
2021,06,23,04,44,11.40
2021,06,23,04,45,11.40
2021,06,23,04,46,11.40
2021,06,23,04,47,11.40
2021,06,23,04,48,11.40
2021,06,23,04,49,11.40
2021,06,23,04,50,11.40
2021,06,23,04,51,11.40
2021,06,23,04,52,11.40
2021,06,23,04,53,11.40
2021,06,23,04,54,11.40
2021,06,23,04,55,11.40
2021,06,23,04,56,11.40
2021,06,23,04,57,11.40
2021,06,23,04,58,11.50
2021,06,23,04,59,11.50
2021,06,23,05,00,11.60
2021,06,23,05,01,11.60
2021,06,23,05,02,11.60
2021,06,23,05,03,11.70
2021,06,23,05,04,11.70
2021,06,23,05,05,11.70
2021,06,23,05,06,11.70
2021,06,23,05,07,11.80
2021,06,23,05,08,11.80
2021,06,23,05,09,11.80
2021,06,23,05,10,11.80
2021,06,23,05,11,11.90
2021,06,23,05,12,11.90
2021,06,23,05,13,11.90
2021,06,23,05,14,12.00
2021,06,23,05,15,12.00
2021,06,23,05,16,12.00
2021,06,23,05,17,12.10
2021,06,23,05,18,12.10
2021,06,23,05,19,12.10
2021,06,23,05,20,12.10
2021,06,23,05,21,12.10
2021,06,23,05,22,12.20
2021,06,23,05,23,12.20
2021,06,23,05,24,12.20
2021,06,23,05,25,12.20
2021,06,23,05,26,12.20
2021,06,23,05,27,12.20
2021,06,23,05,28,12.20
2021,06,23,05,29,12.20
2021,06,23,05,30,12.20
2021,06,23,05,31,12.20
2021,06,23,05,32,12.20
2021,06,23,05,33,12.20
2021,06,23,05,34,12.30
2021,06,23,05,35,12.30
2021,06,23,05,36,12.30
2021,06,23,05,37,12.30
2021,06,23,05,38,12.30
2021,06,23,05,39,12.30
2021,06,23,05,40,12.30
2021,06,23,05,41,12.30
2021,06,23,05,42,12.30
2021,06,23,05,43,12.30
2021,06,23,05,44,12.30
2021,06,23,05,45,12.40
2021,06,23,05,46,12.40
2021,06,23,05,47,12.40
2021,06,23,05,48,12.40
2021,06,23,05,49,12.30
2021,06,23,05,50,12.30
2021,06,23,05,51,12.40
2021,06,23,05,52,12.40
2021,06,23,05,53,12.40
2021,06,23,05,54,12.40
2021,06,23,05,55,12.40
2021,06,23,05,56,12.40
2021,06,23,05,57,12.40
2021,06,23,05,58,12.40
2021,06,23,05,59,12.40
2021,06,23,06,00,12.50
2021,06,23,06,01,12.50
2021,06,23,06,02,12.50
2021,06,23,06,03,12.50
2021,06,23,06,04,12.50
2021,06,23,06,05,12.50
2021,06,23,06,06,12.50
2021,06,23,06,07,12.60
2021,06,23,06,08,12.60
2021,06,23,06,09,12.60
2021,06,23,06,10,12.60
2021,06,23,06,11,12.50
2021,06,23,06,12,12.50
2021,06,23,06,13,12.50
2021,06,23,06,14,12.40
2021,06,23,06,15,12.40
2021,06,23,06,16,12.40
2021,06,23,06,17,12.30
2021,06,23,06,18,12.30
2021,06,23,06,19,12.30
2021,06,23,06,20,12.30
2021,06,23,06,21,12.30
2021,06,23,06,22,12.30
2021,06,23,06,23,12.30
2021,06,23,06,24,12.30
2021,06,23,06,25,12.30
2021,06,23,06,26,12.30
2021,06,23,06,27,12.30
2021,06,23,06,28,12.30
2021,06,23,06,29,12.30
2021,06,23,06,30,12.30
2021,06,23,06,31,12.40
2021,06,23,06,32,12.40
2021,06,23,06,33,12.40
2021,06,23,06,34,12.50
2021,06,23,06,35,12.50
2021,06,23,06,36,12.50
2021,06,23,06,37,12.50
2021,06,23,06,38,12.60
2021,06,23,06,39,12.60
2021,06,23,06,40,12.60
2021,06,23,06,41,12.70
2021,06,23,06,42,12.70
2021,06,23,06,43,12.70
2021,06,23,06,44,12.70
2021,06,23,06,45,12.80
2021,06,23,06,46,12.80
2021,06,23,06,47,12.90
2021,06,23,06,48,12.90
2021,06,23,06,49,13.00
2021,06,23,06,50,13.10
2021,06,23,06,51,13.10
2021,06,23,06,52,13.20
2021,06,23,06,53,13.20
2021,06,23,06,54,13.20
2021,06,23,06,55,13.20
2021,06,23,06,56,13.30
2021,06,23,06,57,13.30
2021,06,23,06,58,13.30
2021,06,23,06,59,13.40
2021,06,23,07,00,13.40
2021,06,23,07,01,13.40
2021,06,23,07,02,13.50
2021,06,23,07,03,13.50
2021,06,23,07,04,13.60
2021,06,23,07,05,13.60
2021,06,23,07,06,13.70
2021,06,23,07,07,13.70
2021,06,23,07,08,13.70
2021,06,23,07,09,13.70
2021,06,23,07,10,13.70
2021,06,23,07,11,13.70
2021,06,23,07,12,13.70
2021,06,23,07,13,13.70
2021,06,23,07,14,13.70
2021,06,23,07,15,13.70
2021,06,23,07,16,13.70
2021,06,23,07,17,13.70
2021,06,23,07,18,13.80
2021,06,23,07,19,13.80
2021,06,23,07,20,13.80
2021,06,23,07,21,13.80
2021,06,23,07,22,13.80
2021,06,23,07,23,13.80
2021,06,23,07,24,13.80
2021,06,23,07,25,13.80
2021,06,23,07,26,13.70
2021,06,23,07,27,13.70
2021,06,23,07,28,13.80
2021,06,23,07,29,13.80
2021,06,23,07,30,13.80
2021,06,23,07,31,13.80
2021,06,23,07,32,13.90
2021,06,23,07,33,13.90
2021,06,23,07,34,14.00
2021,06,23,07,35,14.00
2021,06,23,07,36,14.00
2021,06,23,07,37,14.00
2021,06,23,07,38,14.00
2021,06,23,07,39,14.10
2021,06,23,07,40,14.10
2021,06,23,07,41,14.10
2021,06,23,07,42,14.10
2021,06,23,07,43,14.20
2021,06,23,07,44,14.20
2021,06,23,07,45,14.30
2021,06,23,07,46,14.30
2021,06,23,07,47,14.30
2021,06,23,07,48,14.30
2021,06,23,07,49,14.30
2021,06,23,07,50,14.30
2021,06,23,07,51,14.40
2021,06,23,07,52,14.40
2021,06,23,07,53,14.40
2021,06,23,07,54,14.30
2021,06,23,07,55,14.30
2021,06,23,07,56,14.20
2021,06,23,07,57,14.10
2021,06,23,07,58,14.10
2021,06,23,07,59,14.10
2021,06,23,08,00,14.00
2021,06,23,08,01,14.00
2021,06,23,08,02,13.90
2021,06,23,08,03,13.90
2021,06,23,08,04,13.90
2021,06,23,08,05,13.90
2021,06,23,08,06,13.80
2021,06,23,08,07,13.80
2021,06,23,08,08,13.80
2021,06,23,08,09,13.80
2021,06,23,08,10,13.80
2021,06,23,08,11,13.80
2021,06,23,08,12,13.80
2021,06,23,08,13,13.80
2021,06,23,08,14,13.70
2021,06,23,08,15,13.60
2021,06,23,08,16,13.60
2021,06,23,08,17,13.60
2021,06,23,08,18,13.60
2021,06,23,08,19,13.60
2021,06,23,08,20,13.70
2021,06,23,08,21,13.80
2021,06,23,08,22,13.90
2021,06,23,08,23,13.90
2021,06,23,08,24,13.90
2021,06,23,08,25,14.00
2021,06,23,08,26,14.00
2021,06,23,08,27,14.10
2021,06,23,08,28,14.30
2021,06,23,08,29,14.30
2021,06,23,08,30,14.40
2021,06,23,08,31,14.40
2021,06,23,08,32,14.50
2021,06,23,08,33,14.50
2021,06,23,08,34,14.60
2021,06,23,08,35,14.60
2021,06,23,08,36,14.70
2021,06,23,08,37,14.70
2021,06,23,08,38,14.70
2021,06,23,08,39,14.70
2021,06,23,08,40,14.70
2021,06,23,08,41,14.70
2021,06,23,08,42,14.60
2021,06,23,08,43,14.60
2021,06,23,08,44,14.60
2021,06,23,08,45,14.60
2021,06,23,08,46,14.60
2021,06,23,08,47,14.50
2021,06,23,08,48,14.50
2021,06,23,08,49,14.50
2021,06,23,08,50,14.40
2021,06,23,08,51,14.40
2021,06,23,08,52,14.40
2021,06,23,08,53,14.40
2021,06,23,08,54,14.40
2021,06,23,08,55,14.40
2021,06,23,08,56,14.40
2021,06,23,08,57,14.40
2021,06,23,08,58,14.40
2021,06,23,08,59,14.30
2021,06,23,09,00,14.30
2021,06,23,09,01,14.30
2021,06,23,09,02,14.30
2021,06,23,09,03,14.30
2021,06,23,09,04,14.30
2021,06,23,09,05,14.20
2021,06,23,09,06,14.30
2021,06,23,09,07,14.30
2021,06,23,09,08,14.40
2021,06,23,09,09,14.40
2021,06,23,09,10,14.40
2021,06,23,09,11,14.40
2021,06,23,09,12,14.40
2021,06,23,09,13,14.40
2021,06,23,09,14,14.40
2021,06,23,09,15,14.40
2021,06,23,09,16,14.40
2021,06,23,09,17,14.40
2021,06,23,09,18,14.40
2021,06,23,09,19,14.50
2021,06,23,09,20,14.50
2021,06,23,09,21,14.60
2021,06,23,09,22,14.70
2021,06,23,09,23,14.70
2021,06,23,09,24,14.80
2021,06,23,09,25,14.80
2021,06,23,09,26,14.80
2021,06,23,09,27,14.80
2021,06,23,09,28,14.80
2021,06,23,09,29,14.70
2021,06,23,09,30,14.70
2021,06,23,09,31,14.70
2021,06,23,09,32,14.70
2021,06,23,09,33,14.70
2021,06,23,09,34,14.70
2021,06,23,09,35,14.60
2021,06,23,09,36,14.50
2021,06,23,09,37,14.50
2021,06,23,09,38,14.50
2021,06,23,09,39,14.50
2021,06,23,09,40,14.60
2021,06,23,09,41,14.60
2021,06,23,09,42,14.70
2021,06,23,09,43,14.70
2021,06,23,09,44,14.70
2021,06,23,09,45,14.70
2021,06,23,09,46,14.70
2021,06,23,09,47,14.70
2021,06,23,09,48,14.80
2021,06,23,09,49,14.80
2021,06,23,09,50,14.90
2021,06,23,09,51,14.90
2021,06,23,09,52,15.00
2021,06,23,09,53,15.00
2021,06,23,09,54,15.00
2021,06,23,09,55,15.00
2021,06,23,09,56,14.90
2021,06,23,09,57,14.80
2021,06,23,09,58,14.80
2021,06,23,09,59,14.80
2021,06,23,10,00,14.80
2021,06,23,10,01,14.80
2021,06,23,10,02,14.80
2021,06,23,10,03,14.90
2021,06,23,10,04,14.90
2021,06,23,10,05,14.90
2021,06,23,10,06,14.80
2021,06,23,10,07,14.70
2021,06,23,10,08,14.70
2021,06,23,10,09,14.70
2021,06,23,10,10,14.70
2021,06,23,10,11,14.80
2021,06,23,10,12,14.80
2021,06,23,10,13,14.90
2021,06,23,10,14,15.00
2021,06,23,10,15,15.10
2021,06,23,10,16,15.10
2021,06,23,10,17,15.10
2021,06,23,10,18,15.00
2021,06,23,10,19,14.90
2021,06,23,10,20,14.90
2021,06,23,10,21,14.90
2021,06,23,10,22,14.90
2021,06,23,10,23,15.00
2021,06,23,10,24,15.10
2021,06,23,10,25,15.00
2021,06,23,10,26,14.90
2021,06,23,10,27,14.90
2021,06,23,10,28,14.90
2021,06,23,10,29,14.90
2021,06,23,10,30,15.00
2021,06,23,10,31,15.00
2021,06,23,10,32,15.10
2021,06,23,10,33,15.10
2021,06,23,10,34,15.10
2021,06,23,10,35,15.00
2021,06,23,10,36,15.00
2021,06,23,10,37,15.00
2021,06,23,10,38,15.00
2021,06,23,10,39,15.10
2021,06,23,10,40,15.20
2021,06,23,10,41,15.40
2021,06,23,10,42,15.50
2021,06,23,10,43,15.60
2021,06,23,10,44,15.70
2021,06,23,10,45,15.70
2021,06,23,10,46,15.80
2021,06,23,10,47,15.90
2021,06,23,10,48,15.90
2021,06,23,10,49,16.00
2021,06,23,10,50,16.10
2021,06,23,10,51,16.00
2021,06,23,10,52,15.90
2021,06,23,10,53,15.80
2021,06,23,10,54,15.70
2021,06,23,10,55,15.70
2021,06,23,10,56,15.80
2021,06,23,10,57,15.80
2021,06,23,10,58,15.80
2021,06,23,10,59,15.90
2021,06,23,11,00,15.90
2021,06,23,11,01,15.90
2021,06,23,11,02,15.90
2021,06,23,11,03,15.90
2021,06,23,11,04,16.00
2021,06,23,11,05,16.00
2021,06,23,11,06,16.00
2021,06,23,11,07,16.00
2021,06,23,11,08,16.00
2021,06,23,11,09,16.10
2021,06,23,11,10,16.10
2021,06,23,11,11,16.10
2021,06,23,11,12,16.10
2021,06,23,11,13,16.10
2021,06,23,11,14,16.00
2021,06,23,11,15,15.90
2021,06,23,11,16,15.90
2021,06,23,11,17,16.00
2021,06,23,11,18,16.00
2021,06,23,11,19,16.00
2021,06,23,11,20,16.10
2021,06,23,11,21,16.10
2021,06,23,11,22,16.10
2021,06,23,11,23,16.20
2021,06,23,11,24,16.30
2021,06,23,11,25,16.30
2021,06,23,11,26,16.40
2021,06,23,11,27,16.50
2021,06,23,11,28,16.50
2021,06,23,11,29,16.60
2021,06,23,11,30,16.60
2021,06,23,11,31,16.40
2021,06,23,11,32,16.30
2021,06,23,11,33,16.20
2021,06,23,11,34,16.10
2021,06,23,11,35,16.10
2021,06,23,11,36,16.10
2021,06,23,11,37,16.10
2021,06,23,11,38,16.10
2021,06,23,11,39,16.20
2021,06,23,11,40,16.20
2021,06,23,11,41,16.30
2021,06,23,11,42,16.30
2021,06,23,11,43,16.30
2021,06,23,11,44,16.40
2021,06,23,11,45,16.40
2021,06,23,11,46,16.40
2021,06,23,11,47,16.50
2021,06,23,11,48,16.50
2021,06,23,11,49,16.50
2021,06,23,11,50,16.50
2021,06,23,11,51,16.50
2021,06,23,11,52,16.50
2021,06,23,11,53,16.60
2021,06,23,11,54,16.60
2021,06,23,11,55,16.60
2021,06,23,11,56,16.60
2021,06,23,11,57,16.60
2021,06,23,11,58,16.70
2021,06,23,11,59,16.70
2021,06,23,12,00,16.80
2021,06,23,12,01,16.90
2021,06,23,12,02,17.00
2021,06,23,12,03,17.20
2021,06,23,12,04,17.30
2021,06,23,12,05,17.40
2021,06,23,12,06,17.50
2021,06,23,12,07,17.70
2021,06,23,12,08,17.90
2021,06,23,12,09,18.00
2021,06,23,12,10,18.10
2021,06,23,12,11,18.20
2021,06,23,12,12,18.20
2021,06,23,12,13,18.20
2021,06,23,12,14,18.20
2021,06,23,12,15,18.20
2021,06,23,12,16,18.20
2021,06,23,12,17,18.20
2021,06,23,12,18,18.20
2021,06,23,12,19,18.10
2021,06,23,12,20,18.10
2021,06,23,12,21,18.10
2021,06,23,12,22,18.20
2021,06,23,12,23,18.10
2021,06,23,12,24,18.10
2021,06,23,12,25,18.10
2021,06,23,12,26,18.20
2021,06,23,12,27,18.20
2021,06,23,12,28,18.30
2021,06,23,12,29,18.30
2021,06,23,12,30,18.40
2021,06,23,12,31,18.40
2021,06,23,12,32,18.40
2021,06,23,12,33,18.40
2021,06,23,12,34,18.40
2021,06,23,12,35,18.50
2021,06,23,12,36,18.50
2021,06,23,12,37,18.50
2021,06,23,12,38,18.60
2021,06,23,12,39,18.70
2021,06,23,12,40,18.70
2021,06,23,12,41,18.90
2021,06,23,12,42,18.90
2021,06,23,12,43,18.90
2021,06,23,12,44,18.80
2021,06,23,12,45,18.80
2021,06,23,12,46,18.80
2021,06,23,12,47,18.90
2021,06,23,12,48,19.00
2021,06,23,12,49,19.10
2021,06,23,12,50,19.30
2021,06,23,12,51,19.60
2021,06,23,12,52,19.80
2021,06,23,12,53,19.90
2021,06,23,12,54,20.10
2021,06,23,12,55,20.20
2021,06,23,12,56,20.30
2021,06,23,12,57,20.40
2021,06,23,12,58,20.40
2021,06,23,12,59,20.40
2021,06,23,13,00,20.40
2021,06,23,13,01,20.50
2021,06,23,13,02,20.50
2021,06,23,13,03,20.50
2021,06,23,13,04,20.60
2021,06,23,13,05,20.60
2021,06,23,13,06,20.60
2021,06,23,13,07,20.60
2021,06,23,13,08,20.50
2021,06,23,13,09,20.40
2021,06,23,13,10,20.40
2021,06,23,13,11,20.40
2021,06,23,13,12,20.40
2021,06,23,13,13,20.40
2021,06,23,13,14,20.40
2021,06,23,13,15,20.40
2021,06,23,13,16,20.40
2021,06,23,13,17,20.40
2021,06,23,13,18,20.30
2021,06,23,13,19,20.30
2021,06,23,13,20,20.30
2021,06,23,13,21,20.30
2021,06,23,13,22,20.20
2021,06,23,13,23,20.10
2021,06,23,13,24,20.10
2021,06,23,13,25,20.00
2021,06,23,13,26,19.90
2021,06,23,13,27,20.00
2021,06,23,13,28,20.00
2021,06,23,13,29,20.10
2021,06,23,13,30,20.20
2021,06,23,13,31,20.20
2021,06,23,13,32,20.20
2021,06,23,13,33,20.20
2021,06,23,13,34,20.20
2021,06,23,13,35,20.20
2021,06,23,13,36,20.30
2021,06,23,13,37,20.30
2021,06,23,13,38,20.30
2021,06,23,13,39,20.30
2021,06,23,13,40,20.20
2021,06,23,13,41,20.20
2021,06,23,13,42,20.30
2021,06,23,13,43,20.30
2021,06,23,13,44,20.40
2021,06,23,13,45,20.50
2021,06,23,13,46,20.50
2021,06,23,13,47,20.50
2021,06,23,13,48,20.50
2021,06,23,13,49,20.40
2021,06,23,13,50,20.40
2021,06,23,13,51,20.50
2021,06,23,13,52,20.60
2021,06,23,13,53,20.70
2021,06,23,13,54,20.80
2021,06,23,13,55,20.80
2021,06,23,13,56,20.90
2021,06,23,13,57,21.00
2021,06,23,13,58,21.00
2021,06,23,13,59,21.00
2021,06,23,14,00,21.10
2021,06,23,14,01,21.10
2021,06,23,14,02,21.10
2021,06,23,14,03,21.10
2021,06,23,14,04,21.10
2021,06,23,14,05,21.00
2021,06,23,14,06,21.00
2021,06,23,14,07,20.90
2021,06,23,14,08,20.90
2021,06,23,14,09,20.90
2021,06,23,14,10,20.90
2021,06,23,14,11,21.00
2021,06,23,14,12,20.90
2021,06,23,14,13,20.90
2021,06,23,14,14,20.80
2021,06,23,14,15,20.80
2021,06,23,14,16,20.80
2021,06,23,14,17,20.90
2021,06,23,14,18,21.00
2021,06,23,14,19,21.10
2021,06,23,14,20,21.20
2021,06,23,14,21,21.20
2021,06,23,14,22,21.20
2021,06,23,14,23,21.20
2021,06,23,14,24,21.20
2021,06,23,14,25,21.30
2021,06,23,14,26,21.30
2021,06,23,14,27,21.30
2021,06,23,14,28,21.40
2021,06,23,14,29,21.50
2021,06,23,14,30,21.50
2021,06,23,14,31,21.50
2021,06,23,14,32,21.60
2021,06,23,14,33,21.70
2021,06,23,14,34,21.80
2021,06,23,14,35,22.00
2021,06,23,14,36,22.10
2021,06,23,14,37,22.30
2021,06,23,14,38,22.40
2021,06,23,14,39,22.50
2021,06,23,14,40,22.50
2021,06,23,14,41,22.60
2021,06,23,14,42,22.50
2021,06,23,14,43,22.40
2021,06,23,14,44,22.40
2021,06,23,14,45,22.40
2021,06,23,14,46,22.40
2021,06,23,14,47,22.40
2021,06,23,14,48,22.30
2021,06,23,14,49,22.30
2021,06,23,14,50,22.20
2021,06,23,14,51,22.20
2021,06,23,14,52,22.10
2021,06,23,14,53,22.10
2021,06,23,14,54,22.10
2021,06,23,14,55,22.10
2021,06,23,14,56,22.20
2021,06,23,14,57,22.20
2021,06,23,14,58,22.30
2021,06,23,14,59,22.30
2021,06,23,15,00,22.50
2021,06,23,15,01,22.60
2021,06,23,15,02,22.70
2021,06,23,15,03,22.70
2021,06,23,15,04,22.70
2021,06,23,15,05,22.80
2021,06,23,15,06,22.90
2021,06,23,15,07,22.80
2021,06,23,15,08,22.90
2021,06,23,15,09,22.90
2021,06,23,15,10,22.90
2021,06,23,15,11,23.00
2021,06,23,15,12,23.00
2021,06,23,15,13,22.90
2021,06,23,15,14,22.90
2021,06,23,15,15,22.90
2021,06,23,15,16,22.90
2021,06,23,15,17,23.00
2021,06,23,15,18,23.10
2021,06,23,15,19,23.20
2021,06,23,15,20,23.20
2021,06,23,15,21,23.20
2021,06,23,15,22,23.20
2021,06,23,15,23,23.20
2021,06,23,15,24,23.20
2021,06,23,15,25,23.10
2021,06,23,15,26,23.10
2021,06,23,15,27,23.10
2021,06,23,15,28,23.10
2021,06,23,15,29,23.20
2021,06,23,15,30,23.20
2021,06,23,15,31,23.30
2021,06,23,15,32,23.30
2021,06,23,15,33,23.30
2021,06,23,15,34,23.30
2021,06,23,15,35,23.30
2021,06,23,15,36,23.30
2021,06,23,15,37,23.30
2021,06,23,15,38,23.30
2021,06,23,15,39,23.40
2021,06,23,15,40,23.50
2021,06,23,15,41,23.60
2021,06,23,15,42,23.60
2021,06,23,15,43,23.70
2021,06,23,15,44,23.70
2021,06,23,15,45,23.70
2021,06,23,15,46,23.70
2021,06,23,15,47,23.70
2021,06,23,15,48,23.80
2021,06,23,15,49,23.80
2021,06,23,15,50,23.70
2021,06,23,15,51,23.70
2021,06,23,15,52,23.70
2021,06,23,15,53,23.70
2021,06,23,15,54,23.70
2021,06,23,15,55,23.80
2021,06,23,15,56,23.90
2021,06,23,15,57,23.90
2021,06,23,15,58,24.00
2021,06,23,15,59,23.90
2021,06,23,16,00,23.80
2021,06,23,16,01,23.80
2021,06,23,16,02,23.80
2021,06,23,16,03,23.70
2021,06,23,16,04,23.80
2021,06,23,16,05,23.80
2021,06,23,16,06,23.80
2021,06,23,16,07,23.70
2021,06,23,16,08,23.40
2021,06,23,16,09,23.20
2021,06,23,16,10,23.00
2021,06,23,16,11,22.80
2021,06,23,16,12,22.50
2021,06,23,16,13,22.40
2021,06,23,16,14,22.30
2021,06,23,16,15,22.30
2021,06,23,16,16,22.20
2021,06,23,16,17,22.20
2021,06,23,16,18,22.10
2021,06,23,16,19,22.10
2021,06,23,16,20,22.10
2021,06,23,16,21,22.10
2021,06,23,16,22,22.10
2021,06,23,16,23,22.00
2021,06,23,16,24,21.80
2021,06,23,16,25,21.70
2021,06,23,16,26,21.60
2021,06,23,16,27,21.50
2021,06,23,16,28,21.40
2021,06,23,16,29,21.30
2021,06,23,16,30,21.20
2021,06,23,16,31,21.20
2021,06,23,16,32,21.10
2021,06,23,16,33,21.00
2021,06,23,16,34,20.90
2021,06,23,16,35,21.00
2021,06,23,16,36,20.90
2021,06,23,16,37,20.90
2021,06,23,16,38,20.80
2021,06,23,16,39,20.80
2021,06,23,16,40,20.80
2021,06,23,16,41,20.80
2021,06,23,16,42,20.90
2021,06,23,16,43,20.80
2021,06,23,16,44,20.60
2021,06,23,16,45,20.40
2021,06,23,16,46,20.30
2021,06,23,16,47,20.10
2021,06,23,16,48,19.90
2021,06,23,16,49,19.70
2021,06,23,16,50,19.60
2021,06,23,16,51,19.40
2021,06,23,16,52,19.30
2021,06,23,16,53,19.10
2021,06,23,16,54,19.00
2021,06,23,16,55,19.00
2021,06,23,16,56,19.00
2021,06,23,16,57,19.00
2021,06,23,16,58,19.10
2021,06,23,16,59,19.10
2021,06,23,17,00,19.20
2021,06,23,17,01,19.20
2021,06,23,17,02,19.10
2021,06,23,17,03,19.10
2021,06,23,17,04,19.10
2021,06,23,17,05,19.10
2021,06,23,17,06,19.10
2021,06,23,17,07,18.90
2021,06,23,17,08,18.80
2021,06,23,17,09,18.70
2021,06,23,17,10,18.50
2021,06,23,17,11,18.50
2021,06,23,17,12,18.40
2021,06,23,17,13,18.40
2021,06,23,17,14,18.30
2021,06,23,17,15,18.30
2021,06,23,17,16,18.40
2021,06,23,17,17,18.40
2021,06,23,17,18,18.30
2021,06,23,17,19,18.30